Time,TemperatureF,DewpointF,PressureIn,WindDirection,WindDirectionDegrees,WindSpeedMPH,WindSpeedGustMPH,Humidity,HourlyPrecipIn,Conditions,Clouds,dailyrainin,SoftwareType,DateUTC
2013-01-21 00:01:00,18.0,-29.4,29.83,NW,315,2.7,2.7,1,0.00,,,0.00,WUHU216HW,2013-01-21 05:01:00,
2013-01-21 00:02:00,18.0,-29.4,29.83,NW,315,2.7,2.7,1,0.00,,,0.00,WUHU216HW,2013-01-21 05:02:00,
2013-01-21 00:03:00,18.0,-29.4,29.83,NW,315,2.7,2.7,1,0.00,,,0.00,WUHU216HW,2013-01-21 05:03:00,
2013-01-21 00:07:00,18.0,-29.4,29.83,NW,315,2.7,2.7,1,0.00,,,0.00,WUHU216HW,2013-01-21 05:07:00,
2013-01-21 00:08:00,18.0,-29.4,29.83,NW,315,2.7,2.7,1,0.00,,,0.00,WUHU216HW,2013-01-21 05:08:00,
2013-01-21 00:30:00,17.6,-29.7,29.83,NW,315,2.7,2.7,1,0.00,,,0.00,WUHU216HW,2013-01-21 05:30:00,
2013-01-21 00:31:00,17.6,-29.7,29.83,NW,315,2.7,2.7,1,0.00,,,0.00,WUHU216HW,2013-01-21 05:31:00,
2013-01-21 00:35:00,17.6,-29.7,29.83,NW,315,2.7,2.7,1,0.00,,,0.00,WUHU216HW,2013-01-21 05:35:00,
2013-01-21 00:36:00,17.6,-29.7,29.83,NW,315,2.7,2.7,1,0.00,,,0.00,WUHU216HW,2013-01-21 05:36:00,
2013-01-21 01:00:00,17.1,-30.1,29.83,West,270,0.4,0.4,1,0.00,,,0.00,WUHU216HW,2013-01-21 06:00:00,
2013-01-21 01:05:00,17.1,-30.1,29.83,West,270,0.4,0.4,1,0.00,,,0.00,WUHU216HW,2013-01-21 06:05:00,
2013-01-21 01:30:00,17.3,-30.0,29.82,West,270,2.2,2.2,1,0.00,,,0.00,WUHU216HW,2013-01-21 06:30:00,
2013-01-21 01:35:00,17.3,-30.0,29.82,West,270,2.2,2.2,1,0.00,,,0.00,WUHU216HW,2013-01-21 06:35:00,
2013-01-21 02:00:00,16.9,-30.2,29.82,WSW,248,2.9,2.9,1,0.00,,,0.00,WUHU216HW,2013-01-21 07:00:00,
2013-01-21 02:05:00,16.9,-30.2,29.82,WSW,248,2.9,2.9,1,0.00,,,0.00,WUHU216HW,2013-01-21 07:05:00,
2013-01-21 02:30:00,16.9,-30.2,29.83,WNW,293,2.0,2.0,1,0.00,,,0.00,WUHU216HW,2013-01-21 07:30:00,
2013-01-21 02:32:00,16.9,-30.2,29.83,WNW,293,2.0,2.0,1,0.00,,,0.00,WUHU216HW,2013-01-21 07:32:00,
2013-01-21 02:35:00,16.9,-30.2,29.83,WNW,293,2.0,2.0,1,0.00,,,0.00,WUHU216HW,2013-01-21 07:35:00,
2013-01-21 02:37:00,16.9,-30.2,29.83,WNW,293,2.0,2.0,1,0.00,,,0.00,WUHU216HW,2013-01-21 07:37:00,
2013-01-21 03:00:00,16.6,-30.6,29.82,West,270,0.7,0.7,1,0.00,,,0.00,WUHU216HW,2013-01-21 08:00:00,
2013-01-21 03:05:00,16.6,-30.6,29.82,West,270,0.7,0.7,1,0.00,,,0.00,WUHU216HW,2013-01-21 08:05:00,
2013-01-21 03:30:00,16.6,-30.6,29.82,West,270,1.6,1.6,1,0.00,,,0.00,WUHU216HW,2013-01-21 08:30:00,
2013-01-21 03:35:00,16.6,-30.6,29.82,West,270,1.6,1.6,1,0.00,,,0.00,WUHU216HW,2013-01-21 08:35:00,
2013-01-21 04:00:00,16.6,-30.6,29.81,West,270,2.0,2.0,1,0.00,,,0.00,WUHU216HW,2013-01-21 09:00:00,
2013-01-21 04:05:00,16.6,-30.6,29.81,West,270,2.0,2.0,1,0.00,,,0.00,WUHU216HW,2013-01-21 09:05:00,
2013-01-21 04:30:00,16.6,-30.6,29.82,West,270,2.5,2.5,1,0.00,,,0.00,WUHU216HW,2013-01-21 09:30:00,
2013-01-21 04:35:00,16.6,-30.6,29.82,West,270,2.5,2.5,1,0.00,,,0.00,WUHU216HW,2013-01-21 09:35:00,
2013-01-21 04:36:00,16.6,-30.6,29.82,West,270,2.5,2.5,1,0.00,,,0.00,WUHU216HW,2013-01-21 09:36:00,
2013-01-21 05:00:00,16.6,-30.6,29.83,WSW,248,0.9,0.9,2,0.00,,,0.00,WUHU216HW,2013-01-21 10:00:00,
2013-01-21 05:05:00,16.6,-30.6,29.83,WSW,248,0.9,0.9,2,0.00,,,0.00,WUHU216HW,2013-01-21 10:05:00,
2013-01-21 05:30:00,16.7,-30.4,29.83,WSW,248,0.4,0.4,5,0.00,,,0.00,WUHU216HW,2013-01-21 10:30:00,
2013-01-21 05:35:00,16.7,-30.4,29.83,WSW,248,0.4,0.4,5,0.00,,,0.00,WUHU216HW,2013-01-21 10:35:00,
2013-01-21 06:00:00,16.4,-30.7,29.82,WSW,248,0.0,0.0,6,0.00,,,0.00,WUHU216HW,2013-01-21 11:00:00,
2013-01-21 06:05:00,16.4,-30.7,29.82,WSW,248,0.0,0.0,6,0.00,,,0.00,WUHU216HW,2013-01-21 11:05:00,
2013-01-21 06:30:00,16.6,-30.6,29.83,WSW,248,0.0,0.0,6,0.00,,,0.00,WUHU216HW,2013-01-21 11:30:00,
2013-01-21 06:35:00,16.6,-30.6,29.83,WSW,248,0.0,0.0,6,0.00,,,0.00,WUHU216HW,2013-01-21 11:35:00,
2013-01-21 07:00:00,16.2,-30.9,29.83,WSW,248,0.0,0.0,6,0.00,,,0.00,WUHU216HW,2013-01-21 12:00:00,
2013-01-21 07:05:00,16.2,-30.9,29.83,WSW,248,0.0,0.0,6,0.00,,,0.00,WUHU216HW,2013-01-21 12:05:00,
2013-01-21 07:30:00,14.9,-30.6,29.84,SSW,203,0.0,0.0,11,0.00,,,0.00,WUHU216HW,2013-01-21 12:30:00,
2013-01-21 07:35:00,14.9,-30.6,29.84,SSW,203,0.0,0.0,11,0.00,,,0.00,WUHU216HW,2013-01-21 12:35:00,
2013-01-21 08:00:00,13.5,-26.5,29.83,SSW,203,0.4,0.4,15,0.00,,,0.00,WUHU216HW,2013-01-21 13:00:00,
2013-01-21 08:05:00,13.5,-26.5,29.83,SSW,203,0.4,0.4,15,0.00,,,0.00,WUHU216HW,2013-01-21 13:05:00,
2013-01-21 08:10:00,13.5,-26.5,29.83,SSW,203,0.4,0.4,15,0.00,,,0.00,WUHU216HW,2013-01-21 13:10:00,
2013-01-21 08:30:00,14.4,-32.3,29.83,SSW,203,0.4,0.4,10,0.00,,,0.00,WUHU216HW,2013-01-21 13:30:00,
2013-01-21 08:35:00,14.4,-32.3,29.83,SSW,203,0.4,0.4,10,0.00,,,0.00,WUHU216HW,2013-01-21 13:35:00,
2013-01-21 09:00:00,16.7,-30.4,29.82,North,0,1.8,1.8,2,0.00,,,0.00,WUHU216HW,2013-01-21 14:00:00,
2013-01-21 09:05:00,16.7,-30.4,29.82,North,0,1.8,1.8,2,0.00,,,0.00,WUHU216HW,2013-01-21 14:05:00,
2013-01-21 09:30:00,19.8,-28.0,29.82,SSW,203,1.1,1.1,1,0.00,,,0.00,WUHU216HW,2013-01-21 14:30:00,
2013-01-21 09:35:00,19.8,-28.0,29.82,SSW,203,1.1,1.1,1,0.00,,,0.00,WUHU216HW,2013-01-21 14:35:00,
2013-01-21 10:00:00,18.4,-29.2,29.82,North,0,1.1,1.1,2,0.00,,,0.00,WUHU216HW,2013-01-21 15:00:00,
2013-01-21 10:05:00,18.4,-29.2,29.82,North,0,1.1,1.1,2,0.00,,,0.00,WUHU216HW,2013-01-21 15:05:00,
2013-01-21 10:30:00,19.4,-28.3,29.81,North,0,1.8,1.8,1,0.00,,,0.00,WUHU216HW,2013-01-21 15:30:00,
2013-01-21 10:35:00,19.4,-28.3,29.81,North,0,1.8,1.8,1,0.00,,,0.00,WUHU216HW,2013-01-21 15:35:00,
2013-01-21 11:00:00,20.0,-27.9,29.80,North,0,1.8,1.8,7,0.00,,,0.00,WUHU216HW,2013-01-21 16:00:00,
2013-01-21 11:05:00,20.0,-27.9,29.80,North,0,1.8,1.8,7,0.00,,,0.00,WUHU216HW,2013-01-21 16:05:00,
2013-01-21 11:30:00,21.2,-15.0,29.77,North,0,1.8,1.8,19,0.00,,,0.00,WUHU216HW,2013-01-21 16:30:00,
2013-01-21 11:35:00,21.2,-15.0,29.77,North,0,1.8,1.8,19,0.00,,,0.00,WUHU216HW,2013-01-21 16:35:00,
2013-01-21 12:00:00,22.0,-9.7,29.75,North,0,4.9,4.9,24,0.00,,,0.00,WUHU216HW,2013-01-21 17:00:00,
2013-01-21 12:05:00,22.0,-9.7,29.75,North,0,4.9,4.9,24,0.00,,,0.00,WUHU216HW,2013-01-21 17:05:00,
2013-01-21 12:30:00,22.5,-3.1,29.72,North,0,0.7,0.7,32,0.00,,,0.00,WUHU216HW,2013-01-21 17:30:00,
2013-01-21 12:35:00,22.5,-3.1,29.72,North,0,0.7,0.7,32,0.00,,,0.00,WUHU216HW,2013-01-21 17:35:00,
2013-01-21 13:00:00,23.6,-5.7,29.71,North,0,2.2,2.2,27,0.00,,,0.00,WUHU216HW,2013-01-21 18:00:00,
2013-01-21 13:05:00,23.6,-5.7,29.71,North,0,2.2,2.2,27,0.00,,,0.00,WUHU216HW,2013-01-21 18:05:00,
2013-01-21 13:06:00,23.6,-5.7,29.71,North,0,2.2,2.2,27,0.00,,,0.00,WUHU216HW,2013-01-21 18:06:00,
2013-01-21 13:30:00,23.4,-1.0,29.70,North,0,3.4,3.4,34,0.00,,,0.00,WUHU216HW,2013-01-21 18:30:00,
2013-01-21 13:35:00,23.4,-1.0,29.70,North,0,3.4,3.4,34,0.00,,,0.00,WUHU216HW,2013-01-21 18:35:00,
2013-01-21 14:00:00,23.0,-2.5,29.69,North,0,1.1,1.1,32,0.00,,,0.00,WUHU216HW,2013-01-21 19:00:00,
2013-01-21 14:05:00,23.0,-2.5,29.69,North,0,1.1,1.1,32,0.00,,,0.00,WUHU216HW,2013-01-21 19:05:00,
2013-01-21 14:07:00,23.0,-2.5,29.69,North,0,1.1,1.1,32,0.00,,,0.00,WUHU216HW,2013-01-21 19:07:00,
2013-01-21 14:30:00,23.0,-6.3,29.67,North,0,2.0,2.0,27,0.00,,,0.00,WUHU216HW,2013-01-21 19:30:00,
2013-01-21 14:35:00,23.0,-6.3,29.67,North,0,2.0,2.0,27,0.00,,,0.00,WUHU216HW,2013-01-21 19:35:00,
2013-01-21 15:00:00,23.0,-6.3,29.67,North,0,2.0,2.0,27,0.00,,,0.00,WUHU216HW,2013-01-21 20:00:00,
2013-01-21 15:05:00,23.0,-6.3,29.67,North,0,2.0,2.0,27,0.00,,,0.00,WUHU216HW,2013-01-21 20:05:00,
2013-01-21 15:30:00,22.7,-10.7,29.66,SSW,203,0.0,0.0,22,0.00,,,0.00,WUHU216HW,2013-01-21 20:30:00,
2013-01-21 15:35:00,22.7,-10.7,29.66,SSW,203,0.0,0.0,22,0.00,,,0.00,WUHU216HW,2013-01-21 20:35:00,
2013-01-21 16:00:00,22.3,-14.0,29.64,SSW,203,0.7,0.7,19,0.00,,,0.00,WUHU216HW,2013-01-21 21:00:00,
2013-01-21 16:05:00,22.3,-14.0,29.64,SSW,203,0.7,0.7,19,0.00,,,0.00,WUHU216HW,2013-01-21 21:05:00,
2013-01-21 16:30:00,22.0,-23.8,29.64,North,0,2.2,2.2,12,0.00,,,0.00,WUHU216HW,2013-01-21 21:30:00,
2013-01-21 16:35:00,22.0,-23.8,29.64,North,0,2.2,2.2,12,0.00,,,0.00,WUHU216HW,2013-01-21 21:35:00,
2013-01-21 17:00:00,21.2,-27.0,29.64,North,0,2.7,2.7,4,0.00,,,0.00,WUHU216HW,2013-01-21 22:00:00,
2013-01-21 17:05:00,21.2,-27.0,29.64,North,0,2.7,2.7,4,0.00,,,0.00,WUHU216HW,2013-01-21 22:05:00,
2013-01-21 17:30:00,21.2,-27.0,29.64,SSW,203,0.0,0.0,2,0.00,,,0.00,WUHU216HW,2013-01-21 22:30:00,
2013-01-21 17:31:00,21.2,-27.0,29.64,SSW,203,0.0,0.0,2,0.00,,,0.00,WUHU216HW,2013-01-21 22:31:00,
2013-01-21 17:35:00,21.2,-27.0,29.64,SSW,203,0.0,0.0,2,0.00,,,0.00,WUHU216HW,2013-01-21 22:35:00,
2013-01-21 17:36:00,21.2,-27.0,29.64,SSW,203,0.0,0.0,2,0.00,,,0.00,WUHU216HW,2013-01-21 22:36:00,
2013-01-21 18:00:00,21.1,-27.1,29.64,SSW,203,0.2,0.2,1,0.00,,,0.00,WUHU216HW,2013-01-21 23:00:00,
2013-01-21 18:05:00,21.1,-27.1,29.64,SSW,203,0.2,0.2,1,0.00,,,0.00,WUHU216HW,2013-01-21 23:05:00,
2013-01-21 18:30:00,21.6,-26.7,29.64,WSW,248,1.1,1.1,1,0.00,,,0.00,WUHU216HW,2013-01-21 23:30:00,
2013-01-21 18:35:00,21.6,-26.7,29.64,WSW,248,1.1,1.1,1,0.00,,,0.00,WUHU216HW,2013-01-21 23:35:00,
2013-01-21 19:00:00,20.7,-27.3,29.65,West,270,6.3,6.3,1,0.00,,,0.00,WUHU216HW,2013-01-22 00:00:00,
2013-01-21 19:05:00,20.7,-27.3,29.65,West,270,6.3,6.3,1,0.00,,,0.00,WUHU216HW,2013-01-22 00:05:00,
2013-01-21 19:30:00,20.0,-27.9,29.65,West,270,6.5,6.5,1,0.00,,,0.00,WUHU216HW,2013-01-22 00:30:00,
2013-01-21 19:35:00,20.0,-27.9,29.65,West,270,6.5,6.5,1,0.00,,,0.00,WUHU216HW,2013-01-22 00:35:00,
2013-01-21 20:00:00,19.8,-28.0,29.66,West,270,0.9,0.9,1,0.00,,,0.00,WUHU216HW,2013-01-22 01:00:00,
2013-01-21 20:05:00,19.8,-28.0,29.66,West,270,0.9,0.9,1,0.00,,,0.00,WUHU216HW,2013-01-22 01:05:00,
2013-01-21 20:30:00,19.1,-28.5,29.65,West,270,0.4,0.4,1,0.00,,,0.00,WUHU216HW,2013-01-22 01:30:00,
2013-01-21 20:35:00,19.1,-28.5,29.65,West,270,0.4,0.4,1,0.00,,,0.00,WUHU216HW,2013-01-22 01:35:00,
2013-01-21 21:00:00,18.0,-29.4,29.65,WSW,248,0.9,0.9,2,0.00,,,0.00,WUHU216HW,2013-01-22 02:00:00,
2013-01-21 21:05:00,18.0,-29.4,29.65,WSW,248,0.9,0.9,2,0.00,,,0.00,WUHU216HW,2013-01-22 02:05:00,
2013-01-21 21:30:00,17.6,-29.7,29.65,WNW,293,0.9,0.9,4,0.00,,,0.00,WUHU216HW,2013-01-22 02:30:00,
2013-01-21 21:35:00,17.6,-29.7,29.65,WNW,293,0.9,0.9,4,0.00,,,0.00,WUHU216HW,2013-01-22 02:35:00,
2013-01-21 21:36:00,17.6,-29.7,29.65,WNW,293,0.9,0.9,4,0.00,,,0.00,WUHU216HW,2013-01-22 02:36:00,
2013-01-21 22:00:00,17.8,-29.5,29.64,West,270,0.7,0.7,2,0.00,,,0.00,WUHU216HW,2013-01-22 03:00:00,
2013-01-21 22:05:00,17.8,-29.5,29.64,West,270,0.7,0.7,2,0.00,,,0.00,WUHU216HW,2013-01-22 03:05:00,
2013-01-21 22:30:00,17.5,-29.9,29.63,West,270,0.0,0.0,2,0.00,,,0.00,WUHU216HW,2013-01-22 03:30:00,
2013-01-21 22:35:00,17.5,-29.9,29.63,West,270,0.0,0.0,2,0.00,,,0.00,WUHU216HW,2013-01-22 03:35:00,
2013-01-21 23:00:00,16.2,-30.9,29.61,SSW,203,0.0,0.0,1,0.00,,,0.00,WUHU216HW,2013-01-22 04:00:00,
2013-01-21 23:05:00,16.2,-30.9,29.61,SSW,203,0.0,0.0,1,0.00,,,0.00,WUHU216HW,2013-01-22 04:05:00,
2013-01-21 23:30:00,14.9,-31.9,29.60,WNW,293,0.4,0.4,4,0.00,,,0.00,WUHU216HW,2013-01-22 04:30:00,
2013-01-21 23:35:00,14.9,-31.9,29.60,WNW,293,0.4,0.4,4,0.00,,,0.00,WUHU216HW,2013-01-22 04:35:00,